TAM3290 SBGL-SBFI

Flight info

Callsign TAM3290
Flight time 1h 45m
Altitude 34000
Route NAXOP UZ45 RAXIT DCT DIDOM
Aircraft A21N/M-SDE3FGHIRWY/LB1

Departure

Time 2026-04-21 12:18
Airport Rio Galeão – Tom Jobim International Airport (SBGL)

Arrival

Time 2026-04-21 14:03
Airport Cataratas International Airport (SBFI)
Time Latitude Longitude Altitude Speed Heading
2026-04-21 11:51 -22.81553 -43.24757 27 ft 0 kts 42°
2026-04-21 11:51 -22.81544 -43.24748 27 ft 0 kts 42°
2026-04-21 12:07 -22.81562 -43.24765 19 ft 4 kts 34°
2026-04-21 12:08 -22.81585 -43.24777 27 ft 5 kts
2026-04-21 12:08 -22.81604 -43.24773 27 ft 4 kts 306°
2026-04-21 12:08 -22.81605 -43.24771 27 ft 2 kts 305°
2026-04-21 12:11 -22.81593 -43.24790 27 ft 6 kts 301°
2026-04-21 12:12 -22.81562 -43.24837 27 ft 10 kts 319°
2026-04-21 12:12 -22.81508 -43.24904 27 ft 14 kts 300°
2026-04-21 12:12 -22.81455 -43.25001 27 ft 17 kts 300°
2026-04-21 12:12 -22.81393 -43.25110 27 ft 17 kts 311°
2026-04-21 12:13 -22.81313 -43.25209 27 ft 18 kts 303°
2026-04-21 12:13 -22.81249 -43.25301 27 ft 15 kts 319°
2026-04-21 12:13 -22.81169 -43.25362 27 ft 14 kts 335°
2026-04-21 12:13 -22.81074 -43.25386 27 ft 14 kts 354°
2026-04-21 12:14 -22.80985 -43.25381 27 ft 11 kts 350°
2026-04-21 12:14 -22.80938 -43.25444 30 ft 12 kts 295°
2026-04-21 12:14 -22.80903 -43.25529 33 ft 13 kts 294°
2026-04-21 12:14 -22.80860 -43.25589 28 ft 9 kts 335°
2026-04-21 12:15 -22.80816 -43.25583 28 ft 7 kts 33°
2026-04-21 12:15 -22.80776 -43.25545 28 ft 8 kts 39°
2026-04-21 12:15 -22.80728 -43.25507 28 ft 10 kts 36°
2026-04-21 12:15 -22.80664 -43.25459 28 ft 13 kts 34°
2026-04-21 12:16 -22.80579 -43.25386 36 ft 18 kts 34°
2026-04-21 12:16 -22.80468 -43.25409 34 ft 12 kts 330°
2026-04-21 12:16 -22.80409 -43.25444 34 ft 10 kts 330°
2026-04-21 12:16 -22.80350 -43.25486 33 ft 11 kts 325°
2026-04-21 12:17 -22.80278 -43.25518 31 ft 12 kts 359°
2026-04-21 12:17 -22.80196 -43.25484 30 ft 14 kts 30°
2026-04-21 12:17 -22.80160 -43.25400 31 ft 13 kts 74°
2026-04-21 12:17 -22.80081 -43.25096 32 ft 79 kts 74°
2026-04-21 12:18 -22.79868 -43.24278 37 ft 144 kts 73°
2026-04-21 12:18 -22.79556 -43.23059 97 ft 184 kts 74°
2026-04-21 12:18 -22.79232 -43.21717 709 ft 185 kts 74°
2026-04-21 12:18 -22.78922 -43.20305 1221 ft 200 kts 77°
2026-04-21 12:19 -22.78643 -43.18805 1866 ft 208 kts 78°
2026-04-21 12:19 -22.78322 -43.17232 2459 ft 220 kts 77°
2026-04-21 12:19 -22.77968 -43.15569 2984 ft 235 kts 78°
2026-04-21 12:19 -22.77929 -43.13739 3404 ft 255 kts 107°
2026-04-21 12:20 -22.78860 -43.12090 3991 ft 263 kts 141°
2026-04-21 12:20 -22.80493 -43.11239 4772 ft 264 kts 171°
2026-04-21 12:20 -22.82327 -43.11033 5585 ft 267 kts 176°
2026-04-21 12:20 -22.84189 -43.10883 6401 ft 270 kts 176°
2026-04-21 12:21 -22.86076 -43.10698 7164 ft 274 kts 175°
2026-04-21 12:21 -22.87989 -43.10486 7902 ft 278 kts 174°
2026-04-21 12:21 -22.89930 -43.10255 8632 ft 283 kts 174°
2026-04-21 12:21 -22.91901 -43.10013 9378 ft 286 kts 174°
2026-04-21 12:22 -22.93885 -43.09763 10083 ft 290 kts 174°
2026-04-21 12:22 -22.95935 -43.09500 10552 ft 302 kts 173°
2026-04-21 12:22 -22.98080 -43.09326 10900 ft 317 kts 182°
2026-04-21 12:22 -23.00227 -43.09827 11380 ft 325 kts 202°
2026-04-21 12:23 -23.02099 -43.11209 11966 ft 330 kts 225°
2026-04-21 12:23 -23.03416 -43.13304 12574 ft 335 kts 241°
2026-04-21 12:23 -23.04439 -43.15558 13194 ft 339 kts 243°
2026-04-21 12:23 -23.05490 -43.17905 13834 ft 343 kts 242°
2026-04-21 12:24 -23.06544 -43.20199 14387 ft 346 kts 242°
2026-04-21 12:24 -23.07640 -43.22541 14972 ft 349 kts 242°
2026-04-21 12:24 -23.08750 -43.24893 15536 ft 351 kts 241°
2026-04-21 12:24 -23.09870 -43.27258 16096 ft 354 kts 242°
2026-04-21 12:25 -23.10998 -43.29642 16666 ft 356 kts 242°
2026-04-21 12:25 -23.12138 -43.32040 17226 ft 359 kts 241°
2026-04-21 12:25 -23.13292 -43.34463 17779 ft 361 kts 241°
2026-04-21 12:25 -23.14448 -43.36896 18343 ft 364 kts 242°
2026-04-21 12:26 -23.15611 -43.39343 18833 ft 366 kts 242°
2026-04-21 12:26 -23.16778 -43.41806 19315 ft 368 kts 242°
2026-04-21 12:26 -23.17953 -43.44286 19795 ft 370 kts 242°
2026-04-21 12:26 -23.19137 -43.46782 20280 ft 372 kts 242°
2026-04-21 12:27 -23.20324 -43.49283 20769 ft 373 kts 242°
2026-04-21 12:27 -23.21518 -43.51801 21243 ft 376 kts 242°
2026-04-21 12:27 -23.22712 -43.54329 21701 ft 378 kts 242°
2026-04-21 12:27 -23.23917 -43.56880 22161 ft 380 kts 243°
2026-04-21 12:28 -23.25129 -43.59451 22630 ft 382 kts 243°
2026-04-21 12:28 -23.26346 -43.62031 23109 ft 384 kts 243°
2026-04-21 12:28 -23.27571 -43.64624 23564 ft 386 kts 243°
2026-04-21 12:28 -23.28801 -43.67230 23959 ft 388 kts 243°
2026-04-21 12:29 -23.30036 -43.69851 24347 ft 390 kts 243°
2026-04-21 12:29 -23.31273 -43.72478 24733 ft 392 kts 243°
2026-04-21 12:29 -23.32518 -43.75121 25120 ft 393 kts 243°
2026-04-21 12:29 -23.33766 -43.77773 25489 ft 394 kts 243°
2026-04-21 12:30 -23.35015 -43.80428 25870 ft 396 kts 243°
2026-04-21 12:30 -23.36270 -43.83098 26237 ft 397 kts 243°
2026-04-21 12:30 -23.37530 -43.85780 26599 ft 398 kts 243°
2026-04-21 12:30 -23.38794 -43.88472 26950 ft 400 kts 244°
2026-04-21 12:31 -23.40060 -43.91170 27307 ft 401 kts 243°
2026-04-21 12:31 -23.41332 -43.93879 27656 ft 403 kts 243°
2026-04-21 12:31 -23.42608 -43.96600 27995 ft 404 kts 243°
2026-04-21 12:31 -23.43886 -43.99328 28325 ft 406 kts 244°
2026-04-21 12:32 -23.45167 -44.02066 28639 ft 407 kts 244°
2026-04-21 12:32 -23.46455 -44.04821 28929 ft 409 kts 244°
2026-04-21 12:32 -23.47748 -44.07585 29218 ft 411 kts 244°
2026-04-21 12:32 -23.49046 -44.10365 29510 ft 412 kts 244°
2026-04-21 12:33 -23.50350 -44.13156 29791 ft 414 kts 244°
2026-04-21 12:33 -23.51179 -44.15030 29974 ft 414 kts 248°
2026-04-21 12:33 -23.52350 -44.19027 30316 ft 416 kts 256°
2026-04-21 12:33 -23.53048 -44.22090 30546 ft 417 kts 256°
2026-04-21 12:34 -23.53735 -44.25168 30751 ft 419 kts 256°
2026-04-21 12:34 -23.54193 -44.27208 30883 ft 420 kts 256°
2026-04-21 12:34 -23.54897 -44.30306 31095 ft 421 kts 256°
2026-04-21 12:34 -23.55604 -44.33411 31310 ft 423 kts 256°
2026-04-21 12:35 -23.56314 -44.36519 31526 ft 424 kts 256°
2026-04-21 12:35 -23.57025 -44.39635 31735 ft 425 kts 256°
2026-04-21 12:35 -23.57739 -44.42770 31942 ft 426 kts 256°
2026-04-21 12:35 -23.58456 -44.45912 32130 ft 428 kts 256°
2026-04-21 12:36 -23.59176 -44.49067 32347 ft 429 kts 256°
2026-04-21 12:36 -23.59892 -44.52215 32625 ft 428 kts 256°
2026-04-21 12:36 -23.60604 -44.55359 32906 ft 427 kts 256°
2026-04-21 12:36 -23.61313 -44.58492 33204 ft 425 kts 255°
2026-04-21 12:37 -23.62022 -44.61618 33492 ft 424 kts 255°
2026-04-21 12:37 -23.62727 -44.64736 33711 ft 424 kts 256°
2026-04-21 12:37 -23.63433 -44.67855 33924 ft 423 kts 256°
2026-04-21 12:37 -23.64138 -44.70971 34128 ft 423 kts 255°
2026-04-21 12:38 -23.64843 -44.74090 34172 ft 423 kts 255°
2026-04-21 12:38 -23.66248 -44.80318 34153 ft 423 kts 256°
2026-04-21 12:39 -23.67668 -44.86630 34149 ft 433 kts 255°
2026-04-21 12:39 -23.69119 -44.93072 34152 ft 442 kts 255°
2026-04-21 12:40 -23.70590 -44.99646 34150 ft 449 kts 256°
2026-04-21 12:40 -23.72071 -45.06274 34144 ft 450 kts 256°
2026-04-21 12:41 -23.73552 -45.12902 34149 ft 450 kts 256°
2026-04-21 12:41 -23.75030 -45.19533 34148 ft 450 kts 256°
2026-04-21 12:42 -23.76502 -45.26160 34147 ft 450 kts 256°
2026-04-21 12:42 -23.77965 -45.32797 34153 ft 450 kts 256°
2026-04-21 12:43 -23.79428 -45.39440 34147 ft 450 kts 256°
2026-04-21 12:43 -23.80888 -45.46090 34151 ft 450 kts 256°
2026-04-21 12:44 -23.82342 -45.52726 34151 ft 450 kts 256°
2026-04-21 12:44 -23.83796 -45.59370 34155 ft 450 kts 256°
2026-04-21 12:45 -23.85245 -45.66005 34154 ft 448 kts 256°
2026-04-21 12:45 -23.86694 -45.72631 34154 ft 448 kts 256°
2026-04-21 12:46 -23.88140 -45.79249 34153 ft 448 kts 256°
2026-04-21 12:46 -23.89582 -45.85866 34150 ft 447 kts 256°
2026-04-21 12:47 -23.91008 -45.92433 34151 ft 447 kts 256°
2026-04-21 12:47 -23.92436 -45.99014 34149 ft 447 kts 256°
2026-04-21 12:48 -23.93870 -46.05641 34146 ft 446 kts 256°
2026-04-21 12:48 -23.95293 -46.12231 34144 ft 446 kts 256°
2026-04-21 12:49 -23.96717 -46.18826 34139 ft 445 kts 256°
2026-04-21 12:49 -23.98139 -46.25418 34141 ft 445 kts 255°
2026-04-21 12:50 -24.00076 -46.31844 34142 ft 445 kts 250°
2026-04-21 12:50 -24.02123 -46.38228 34143 ft 445 kts 250°
2026-04-21 12:51 -24.04162 -46.44613 34147 ft 445 kts 250°
2026-04-21 12:51 -24.06191 -46.51002 34152 ft 445 kts 250°
2026-04-21 12:52 -24.08221 -46.57396 34166 ft 445 kts 250°
2026-04-21 12:52 -24.10250 -46.63795 34167 ft 445 kts 250°
2026-04-21 12:53 -24.12280 -46.70208 34171 ft 445 kts 250°
2026-04-21 12:53 -24.14305 -46.76615 34180 ft 445 kts 250°
2026-04-21 12:54 -24.16326 -46.83022 34168 ft 446 kts 251°
2026-04-21 12:54 -24.18345 -46.89428 34209 ft 444 kts 251°
2026-04-21 12:55 -24.20356 -46.95820 34200 ft 444 kts 251°
2026-04-21 12:55 -24.22366 -47.02226 34176 ft 445 kts 251°
2026-04-21 12:56 -24.24376 -47.08638 34168 ft 445 kts 251°
2026-04-21 12:56 -24.26371 -47.15062 34167 ft 445 kts 252°
2026-04-21 12:57 -24.28257 -47.21517 34168 ft 444 kts 252°
2026-04-21 12:57 -24.30132 -47.27945 34166 ft 443 kts 252°
2026-04-21 12:58 -24.32006 -47.34378 34166 ft 443 kts 252°
2026-04-21 12:58 -24.33876 -47.40816 34162 ft 443 kts 252°
2026-04-21 12:59 -24.35736 -47.47235 34157 ft 442 kts 252°
2026-04-21 12:59 -24.37595 -47.53658 34158 ft 441 kts 252°
2026-04-21 13:00 -24.39450 -47.60078 34161 ft 441 kts 252°
2026-04-21 13:00 -24.41296 -47.66476 34159 ft 439 kts 252°
2026-04-21 13:01 -24.42767 -47.72978 34159 ft 440 kts 258°
2026-04-21 13:01 -24.43934 -47.79560 34159 ft 440 kts 258°
2026-04-21 13:02 -24.45106 -47.86140 34158 ft 440 kts 258°
2026-04-21 13:02 -24.46857 -47.96026 34161 ft 440 kts 258°
2026-04-21 13:03 -24.48024 -48.02611 34168 ft 440 kts 258°
2026-04-21 13:03 -24.49188 -48.09201 34168 ft 439 kts 258°
2026-04-21 13:04 -24.50349 -48.15786 34168 ft 439 kts 258°
2026-04-21 13:04 -24.51506 -48.22372 34169 ft 439 kts 258°
2026-04-21 13:05 -24.52660 -48.28958 34168 ft 439 kts 258°
2026-04-21 13:05 -24.53810 -48.35541 34174 ft 439 kts 258°
2026-04-21 13:06 -24.54958 -48.42128 34178 ft 439 kts 258°
2026-04-21 13:06 -24.56103 -48.48713 34180 ft 438 kts 259°
2026-04-21 13:07 -24.57244 -48.55290 34181 ft 438 kts 259°
2026-04-21 13:07 -24.58379 -48.61863 34181 ft 438 kts 259°
2026-04-21 13:08 -24.59512 -48.68428 34181 ft 437 kts 259°
2026-04-21 13:08 -24.60642 -48.74991 34182 ft 437 kts 259°
2026-04-21 13:09 -24.61766 -48.81538 34179 ft 437 kts 259°
2026-04-21 13:09 -24.62885 -48.88100 34181 ft 436 kts 259°
2026-04-21 13:10 -24.64004 -48.94649 34181 ft 436 kts 259°
2026-04-21 13:10 -24.65125 -49.01206 34184 ft 436 kts 259°
2026-04-21 13:11 -24.66226 -49.07718 34180 ft 436 kts 259°
2026-04-21 13:11 -24.67329 -49.14256 34179 ft 434 kts 259°
2026-04-21 13:12 -24.68431 -49.20780 34177 ft 434 kts 259°
2026-04-21 13:12 -24.69530 -49.27302 34181 ft 434 kts 259°
2026-04-21 13:13 -24.70621 -49.33814 34180 ft 432 kts 259°
2026-04-21 13:13 -24.71708 -49.40319 34180 ft 432 kts 259°
2026-04-21 13:14 -24.72793 -49.46815 34181 ft 432 kts 259°
2026-04-21 13:14 -24.73875 -49.53310 34178 ft 432 kts 259°
2026-04-21 13:15 -24.74954 -49.59809 34182 ft 432 kts 259°
2026-04-21 13:15 -24.76029 -49.66303 34186 ft 432 kts 259°
2026-04-21 13:16 -24.77101 -49.72805 34186 ft 432 kts 259°
2026-04-21 13:16 -24.78171 -49.79303 34185 ft 432 kts 259°
2026-04-21 13:17 -24.79066 -49.84749 34186 ft 432 kts 259°
2026-04-21 13:17 -24.80129 -49.91249 34186 ft 431 kts 259°
2026-04-21 13:18 -24.81190 -49.97745 34181 ft 432 kts 259°
2026-04-21 13:18 -24.82249 -50.04246 34183 ft 431 kts 259°
2026-04-21 13:19 -24.83302 -50.10751 34183 ft 432 kts 259°
2026-04-21 13:19 -24.84355 -50.17261 34176 ft 432 kts 259°
2026-04-21 13:20 -24.85406 -50.23770 34175 ft 432 kts 259°
2026-04-21 13:20 -24.86447 -50.30242 34173 ft 432 kts 259°
2026-04-21 13:21 -24.87495 -50.36761 34170 ft 432 kts 259°
2026-04-21 13:21 -24.88539 -50.43280 34167 ft 432 kts 259°
2026-04-21 13:22 -24.89577 -50.49796 34169 ft 432 kts 259°
2026-04-21 13:22 -24.90614 -50.56312 34164 ft 432 kts 259°
2026-04-21 13:23 -24.91648 -50.62829 34162 ft 432 kts 259°
2026-04-21 13:23 -24.92688 -50.69396 34167 ft 432 kts 259°
2026-04-21 13:24 -24.93707 -50.75861 34165 ft 431 kts 259°
2026-04-21 13:24 -24.94731 -50.82377 34153 ft 432 kts 259°
2026-04-21 13:25 -24.95757 -50.88919 34167 ft 434 kts 259°
2026-04-21 13:25 -24.96782 -50.95455 34165 ft 433 kts 259°
2026-04-21 13:26 -24.97798 -51.01983 34159 ft 431 kts 259°
2026-04-21 13:26 -24.98801 -51.08445 34151 ft 424 kts 259°
2026-04-21 13:27 -24.99803 -51.14905 34156 ft 432 kts 259°
2026-04-21 13:27 -25.00813 -51.21439 34157 ft 433 kts 259°
2026-04-21 13:28 -25.01821 -51.27985 34157 ft 433 kts 259°
2026-04-21 13:28 -25.02828 -51.34532 34161 ft 433 kts 259°
2026-04-21 13:29 -25.03828 -51.41045 34156 ft 429 kts 259°
2026-04-21 13:29 -25.04809 -51.47488 34155 ft 422 kts 259°
2026-04-21 13:30 -25.05786 -51.53905 34151 ft 429 kts 259°
2026-04-21 13:30 -25.06775 -51.60413 34152 ft 430 kts 259°
2026-04-21 13:31 -25.07755 -51.66911 34144 ft 430 kts 259°
2026-04-21 13:31 -25.08736 -51.73415 34137 ft 430 kts 259°
2026-04-21 13:32 -25.09713 -51.79905 34137 ft 427 kts 259°
2026-04-21 13:32 -25.10674 -51.86323 34131 ft 420 kts 259°
2026-04-21 13:33 -25.11634 -51.92744 34133 ft 428 kts 259°
2026-04-21 13:33 -25.12602 -51.99240 34130 ft 429 kts 259°
2026-04-21 13:34 -25.13567 -52.05731 34122 ft 429 kts 259°
2026-04-21 13:34 -25.14527 -52.12206 34116 ft 427 kts 259°
2026-04-21 13:35 -25.15479 -52.18657 34117 ft 424 kts 259°
2026-04-21 13:35 -25.16418 -52.25035 34106 ft 421 kts 259°
2026-04-21 13:36 -25.17360 -52.31457 34115 ft 426 kts 259°
2026-04-21 13:36 -25.18303 -52.37907 34109 ft 425 kts 259°
2026-04-21 13:37 -25.19244 -52.44356 34103 ft 425 kts 259°
2026-04-21 13:37 -25.20182 -52.50817 34096 ft 428 kts 259°
2026-04-21 13:38 -25.21120 -52.57280 34101 ft 425 kts 260°
2026-04-21 13:38 -25.22047 -52.63706 34096 ft 421 kts 260°
2026-04-21 13:39 -25.22960 -52.70047 34095 ft 419 kts 260°
2026-04-21 13:39 -25.23882 -52.76458 34096 ft 425 kts 260°
2026-04-21 13:40 -25.24802 -52.82885 34072 ft 423 kts 260°
2026-04-21 13:40 -25.25253 -52.86055 34016 ft 410 kts 260°
2026-04-21 13:40 -25.25690 -52.89122 33650 ft 399 kts 260°
2026-04-21 13:41 -25.26124 -52.92146 32905 ft 399 kts 260°
2026-04-21 13:41 -25.26554 -52.95166 32237 ft 397 kts 260°
2026-04-21 13:41 -25.26978 -52.98163 31630 ft 394 kts 261°
2026-04-21 13:41 -25.27394 -53.01105 31083 ft 390 kts 261°
2026-04-21 13:42 -25.27815 -53.04085 30553 ft 386 kts 261°
2026-04-21 13:42 -25.28226 -53.07001 30012 ft 382 kts 261°
2026-04-21 13:42 -25.28634 -53.09893 29401 ft 379 kts 261°
2026-04-21 13:42 -25.29031 -53.12712 28848 ft 374 kts 261°
2026-04-21 13:43 -25.29433 -53.15574 28307 ft 370 kts 261°
2026-04-21 13:43 -25.29806 -53.18334 27800 ft 366 kts 263°
2026-04-21 13:43 -25.30033 -53.21113 27306 ft 361 kts 265°
2026-04-21 13:43 -25.30219 -53.23902 26791 ft 357 kts 265°
2026-04-21 13:44 -25.30396 -53.26624 26289 ft 354 kts 265°
2026-04-21 13:44 -25.30577 -53.29327 25810 ft 351 kts 265°
2026-04-21 13:44 -25.30756 -53.32000 25347 ft 347 kts 265°
2026-04-21 13:44 -25.30932 -53.34652 24869 ft 345 kts 265°
2026-04-21 13:45 -25.31105 -53.37289 24376 ft 343 kts 265°
2026-04-21 13:45 -25.31279 -53.39915 23903 ft 341 kts 265°
2026-04-21 13:45 -25.31452 -53.42523 23395 ft 340 kts 265°
2026-04-21 13:45 -25.31622 -53.45114 22861 ft 338 kts 265°
2026-04-21 13:46 -25.31790 -53.47693 22353 ft 335 kts 265°
2026-04-21 13:46 -25.31956 -53.50216 21864 ft 332 kts 265°
2026-04-21 13:46 -25.32121 -53.52746 21383 ft 329 kts 265°
2026-04-21 13:46 -25.32285 -53.55267 20910 ft 329 kts 266°
2026-04-21 13:47 -25.32448 -53.57784 20465 ft 328 kts 266°
2026-04-21 13:47 -25.32609 -53.60290 20033 ft 326 kts 266°
2026-04-21 13:47 -25.32771 -53.62790 19605 ft 326 kts 266°
2026-04-21 13:47 -25.32929 -53.65281 19171 ft 325 kts 266°
2026-04-21 13:48 -25.33090 -53.67779 18738 ft 326 kts 266°
2026-04-21 13:48 -25.33249 -53.70270 18300 ft 324 kts 266°
2026-04-21 13:48 -25.33408 -53.72748 17808 ft 321 kts 266°
2026-04-21 13:48 -25.33564 -53.75194 17346 ft 318 kts 266°
2026-04-21 13:49 -25.33719 -53.77622 16923 ft 315 kts 266°
2026-04-21 13:49 -25.33871 -53.80039 16528 ft 315 kts 266°
2026-04-21 13:49 -25.34024 -53.82451 16153 ft 315 kts 266°
2026-04-21 13:49 -25.34176 -53.84861 15783 ft 315 kts 267°
2026-04-21 13:50 -25.34329 -53.87275 15421 ft 315 kts 267°
2026-04-21 13:50 -25.34481 -53.89692 15036 ft 316 kts 267°
2026-04-21 13:50 -25.34632 -53.92114 14658 ft 317 kts 267°
2026-04-21 13:50 -25.34785 -53.94554 14274 ft 318 kts 267°
2026-04-21 13:51 -25.34934 -53.96977 13886 ft 314 kts 267°
2026-04-21 13:51 -25.35082 -53.99373 13466 ft 310 kts 267°
2026-04-21 13:51 -25.35228 -54.01729 13071 ft 304 kts 267°
2026-04-21 13:51 -25.35371 -54.04037 12695 ft 298 kts 268°
2026-04-21 13:52 -25.35508 -54.06304 12330 ft 293 kts 268°
2026-04-21 13:52 -25.35646 -54.08541 11967 ft 292 kts 267°
2026-04-21 13:52 -25.35784 -54.10778 11599 ft 292 kts 268°
2026-04-21 13:52 -25.35920 -54.13013 11247 ft 292 kts 267°
2026-04-21 13:53 -25.36058 -54.15250 10889 ft 292 kts 267°
2026-04-21 13:53 -25.36195 -54.17493 10534 ft 292 kts 268°
2026-04-21 13:53 -25.36329 -54.19735 10185 ft 292 kts 267°
2026-04-21 13:53 -25.36464 -54.21973 9844 ft 290 kts 267°
2026-04-21 13:54 -25.36596 -54.24169 9533 ft 283 kts 268°
2026-04-21 13:54 -25.36727 -54.26329 9160 ft 281 kts 268°
2026-04-21 13:54 -25.36856 -54.28490 8777 ft 282 kts 268°
2026-04-21 13:54 -25.36987 -54.30659 8399 ft 283 kts 268°
2026-04-21 13:55 -25.37116 -54.32824 8032 ft 280 kts 268°
2026-04-21 13:55 -25.37242 -54.34955 7685 ft 276 kts 268°
2026-04-21 13:55 -25.37369 -54.37074 7338 ft 277 kts 268°
2026-04-21 13:55 -25.37497 -54.39196 6996 ft 277 kts 269°
2026-04-21 13:56 -25.37622 -54.41330 6642 ft 278 kts 269°
2026-04-21 13:56 -25.37747 -54.43454 6274 ft 275 kts 269°
2026-04-21 13:56 -25.37872 -54.45555 5905 ft 272 kts 269°
2026-04-21 13:56 -25.37998 -54.47636 5553 ft 272 kts 269°
2026-04-21 13:57 -25.38124 -54.49715 5217 ft 271 kts 270°
2026-04-21 13:57 -25.38244 -54.51792 4887 ft 270 kts 270°
2026-04-21 13:57 -25.38362 -54.53861 4527 ft 270 kts 270°
2026-04-21 13:57 -25.38481 -54.55932 4174 ft 270 kts 270°
2026-04-21 13:58 -25.38720 -54.57994 3997 ft 272 kts 258°
2026-04-21 13:58 -25.39252 -54.59251 3957 ft 274 kts 238°
2026-04-21 13:58 -25.40666 -54.60615 3849 ft 269 kts 211°
2026-04-21 13:58 -25.42360 -54.61374 3705 ft 258 kts 201°
2026-04-21 13:59 -25.44023 -54.61995 3528 ft 246 kts 200°
2026-04-21 13:59 -25.45605 -54.62596 3318 ft 236 kts 201°
2026-04-21 13:59 -25.47174 -54.63006 3046 ft 227 kts 182°
2026-04-21 13:59 -25.48617 -54.62602 2953 ft 205 kts 146°
2026-04-21 14:00 -25.49640 -54.61643 2827 ft 183 kts 127°
2026-04-21 14:00 -25.50391 -54.60561 2674 ft 176 kts 126°
2026-04-21 14:00 -25.51188 -54.59525 2788 ft 177 kts 126°
2026-04-21 14:00 -25.51994 -54.58489 2681 ft 178 kts 126°
2026-04-21 14:01 -25.52796 -54.57458 2468 ft 175 kts 126°
2026-04-21 14:01 -25.53580 -54.56449 2246 ft 168 kts 127°
2026-04-21 14:01 -25.54305 -54.55516 2021 ft 156 kts 127°
2026-04-21 14:01 -25.55001 -54.54622 1822 ft 151 kts 128°
2026-04-21 14:02 -25.55679 -54.53748 1629 ft 148 kts 128°
2026-04-21 14:02 -25.56344 -54.52893 1442 ft 145 kts 129°
2026-04-21 14:02 -25.56995 -54.52055 1267 ft 142 kts 129°
2026-04-21 14:03 -25.58264 -54.50419 926 ft 138 kts 130°
2026-04-21 14:03 -25.58890 -54.49625 828 ft 136 kts 130°
2026-04-21 14:03 -25.59433 -54.48923 806 ft 88 kts 130°
2026-04-21 14:03 -25.59664 -54.48628 803 ft 26 kts 132°
2026-04-21 14:04 -25.59759 -54.48501 800 ft 11 kts 131°
2026-04-21 14:04 -25.59826 -54.48503 801 ft 10 kts 210°
2026-04-21 14:04 -25.59849 -54.48558 803 ft 9 kts 291°
2026-04-21 14:04 -25.59816 -54.48604 803 ft 7 kts 310°
2026-04-21 14:05 -25.59783 -54.48647 803 ft 8 kts 311°
2026-04-21 14:05 -25.59743 -54.48697 804 ft 9 kts 311°
2026-04-21 14:05 -25.59703 -54.48749 804 ft 7 kts 308°
2026-04-21 14:05 -25.59711 -54.48788 804 ft 4 kts 217°
2026-04-21 14:06 -25.59732 -54.48807 804 ft 0 kts 220°